EW8511 Weather Reports


time (UTC)temp
C
wind
direction
speed
KPH
gust
KPH
rain 1hr
cm
rain 24hr
cm
rain mn
cm
humidity
%
barometer
mb
20260906173040 25 115 0.0 0.0 0.00 0.00 0.00 71 1013.8
20260906171517 25 117 0.0 0.0 0.00 0.00 0.00 72 1014.1
20260906170046 24 55 0.0 0.0 0.00 0.00 0.00 73 1014.4
20260906164516 23 150 0.0 0.0 0.00 0.00 0.00 73 1014.4
20260906163050 22 96 0.0 0.0 0.00 0.00 0.00 74 1014.5
20260906161515 22 51 0.0 0.0 0.00 0.00 0.00 77 1014.5
20260906160047 21 27 0.0 0.0 0.00 0.00 0.00 79 1014.3
20260906154516 20 191 0.0 0.0 0.00 0.00 0.00 83 1014.4
20260906153059 19 19 0.0 0.0 0.00 0.00 0.00 86 1014.4
20260906151534 19 106 0.0 0.0 0.00 0.00 0.00 86 1014.6
20260906150006 19 110 0.0 0.0 0.00 0.00 0.00 88 1014.3
20260906144548 18 113 0.0 0.0 0.00 0.00 0.00 91 1014.4
20260906143110 17 117 0.0 0.0 0.00 0.00 0.00 94 1014.4
20260906141538 17 87 0.0 0.0 0.00 0.00 0.00 94 1014.4
20260906140007 16 142 0.0 0.0 0.00 0.00 0.00 94 1014.8
20260906134551 16 182 0.0 0.0 0.00 0.00 0.00 95 1015.0
20260906133013 15 78 0.0 0.0 0.00 0.00 0.00 94 1014.8
20260906131542 15 111 0.0 0.0 0.00 0.00 0.00 94 1014.9
20260906130019 14 111 0.0 0.0 0.00 0.00 0.00 94 1014.9
20260906124554 13 109 0.0 0.0 0.00 0.00 0.00 94 1014.6
20260906123030 13 108 0.0 0.0 0.00 0.00 0.00 94 1014.3
20260906121603 13 108 0.0 0.0 0.00 0.00 0.00 94 1014.3
20260906120027 13 108 0.0 0.0 0.00 0.00 0.00 94 1014.3
20260906114613 13 108 0.0 0.0 0.00 0.00 0.00 94 1013.9
20260906113044 13 108 0.0 0.0 0.00 0.00 0.00 94 1013.7
20260906111501 13 108 0.0 0.0 0.00 0.00 0.00 94 1013.7
20260906110044 13 108 0.0 0.0 0.00 0.00 0.00 94 1013.6
20260906104520 13 108 0.0 0.0 0.00 0.00 0.00 94 1013.3
20260906103052 13 108 0.0 0.0 0.00 0.00 0.00 94 1013.3
20260906101520 13 109 0.0 0.0 0.00 0.00 0.00 94 1013.2
20260906100103 13 128 0.0 0.0 0.00 0.00 0.00 93 1013.2
20260906094533 13 119 0.0 0.0 0.00 0.00 0.00 94 1013.2
20260906093111 13 119 0.0 0.0 0.00 0.00 0.00 93 1013.2
20260906091539 14 118 0.0 0.0 0.00 0.00 0.00 94 1013.2
20260906090006 14 128 0.0 0.0 0.00 0.00 0.00 94 1013.0
20260906084543 14 143 0.0 0.0 0.00 0.00 0.00 93 1013.0
20260906083015 14 98 0.0 0.0 0.00 0.00 0.00 93 1013.2
20260906081557 14 81 0.0 0.0 0.00 0.00 0.00 93 1013.4
20260906080022 14 81 0.0 0.0 0.00 0.00 0.00 93 1013.4
20260906074613 14 81 0.0 0.0 0.00 0.00 0.00 93 1013.5
20260906073026 15 81 0.0 0.0 0.00 0.00 0.00 93 1013.8
20260906071606 15 81 0.0 0.0 0.00 0.00 0.00 93 1013.5
20260906070033 15 81 0.0 0.0 0.00 0.00 0.00 93 1013.4
20260906064507 15 81 0.0 0.0 0.00 0.00 0.00 93 1013.3
20260906063039 15 81 0.0 0.0 0.00 0.00 0.00 93 1013.2
20260906061511 15 81 0.0 0.0 0.00 0.00 0.00 93 1013.5
20260906060051 15 81 0.0 0.0 0.00 0.00 0.00 93 1013.5
20260906054514 15 81 0.0 0.0 0.00 0.03 0.00 93 1013.5
20260906053100 15 144 0.0 0.0 0.00 0.03 0.00 92 1013.3
20260906051525 15 144 0.0 0.0 0.00 0.03 0.00 92 1013.4
20260906044539 16 144 0.0 0.0 0.00 0.03 0.03 92 1013.5
20260906043007 16 144 0.0 0.0 0.00 0.03 0.03 92 1013.7
20260906041551 16 144 0.0 0.0 0.00 0.03 0.03 92 1013.7
20260906040028 16 144 0.0 0.0 0.00 0.03 0.03 91 1014.0
20260906034611 16 144 0.0 0.0 0.00 0.03 0.03 91 1013.9
20260906033045 16 144 0.0 0.0 0.00 0.03 0.03 90 1013.7
20260906031513 16 144 0.0 0.0 0.00 0.03 0.03 90 1013.5
20260906030048 16 138 0.0 0.0 0.00 0.03 0.03 90 1013.2
20260906024526 16 82 0.0 0.0 0.00 0.03 0.03 91 1013.2
20260906023108 16 57 0.0 0.0 0.00 0.03 0.03 90 1012.8
20260906021538 16 46 0.0 0.0 0.00 0.03 0.03 91 1012.6
20260906020011 16 126 0.0 0.0 0.00 0.03 0.03 91 1012.5
20260906014556 16 150 0.0 0.0 0.00 0.03 0.03 91 1011.7
20260906013022 16 60 0.0 0.0 0.00 0.03 0.03 91 1011.8
20260906011556 17 64 0.0 0.0 0.00 0.03 0.03 91 1011.7
20260906010031 17 105 0.0 0.0 0.00 0.03 0.03 91 1011.8
20260906004606 17 50 0.0 0.0 0.00 0.03 0.03 91 1011.9
20260906003038 17 86 0.0 0.0 0.00 0.03 0.03 90 1011.8
20260906001509 17 64 0.0 0.0 0.00 0.03 0.03 89 1011.6
20260906000050 17 113 0.0 0.0 0.00 0.03 0.03 89 1012.0
20260905234523 17 43 0.0 0.0 0.00 0.03 0.03 89 1012.1
20260905233105 18 66 0.0 0.0 0.00 0.03 0.03 89 1012.2
20260905231540 18 63 0.0 0.0 0.00 0.03 0.03 89 1012.2
20260905230012 18 67 0.0 0.0 0.00 0.03 0.03 89 1012.5
20260905224557 18 104 0.0 0.0 0.00 0.03 0.03 89 1012.6
20260905223009 18 154 0.0 0.0 0.00 0.03 0.03 89 1012.5
20260905221558 18 72 0.0 0.0 0.00 0.03 0.03 88 1012.7
20260905220018 19 119 0.0 0.0 0.00 0.03 0.03 88 1012.7
20260905214601 18 100 0.0 0.0 0.00 0.03 0.03 89 1013.0
20260905213029 18 163 0.0 0.0 0.00 0.03 0.03 89 1012.9
20260905211631 18 78 0.0 0.0 0.00 0.03 0.03 89 1013.0
20260905210048 18 101 0.0 0.0 0.00 0.03 0.03 89 1013.3
20260905204517 18 88 0.0 0.0 0.00 0.03 0.03 89 1013.5
20260905203116 18 70 0.0 0.0 0.00 0.03 0.03 89 1013.5
20260905201526 18 37 0.0 0.0 0.00 0.03 0.03 89 1013.5
20260905200107 18 64 0.0 0.0 0.00 0.03 0.03 90 1013.6
20260905194536 18 17 0.0 0.0 0.00 0.03 0.03 89 1013.6
20260905193110 18 66 0.0 0.0 0.00 0.03 0.03 89 1013.5
20260905191537 18 49 0.0 0.0 0.00 0.03 0.03 89 1013.4
20260905190005 18 71 0.0 0.0 0.00 0.03 0.03 89 1013.3
20260905184551 18 84 0.0 0.0 0.00 0.03 0.03 89 1013.5
20260905183022 18 153 0.0 0.0 0.00 0.03 0.03 90 1013.4
20260905181613 18 130 0.0 0.0 0.00 0.03 0.03 92 1013.5
20260905180032 17 53 0.0 0.0 0.00 0.03 0.03 92 1013.7
20260905174505 17 118 0.0 0.0 0.00 0.03 0.03 93 1013.5